Simultaneous Nadir Overpasses (SNOs) Predictions

Prediction of SNOs between GOES-16 and NOAA-19 Satellite Orbit:

Table of predicted SNOs for the next 14.0 days since TLE Epoch: 4/9/2022
Index Date Time (GOES-16) GOES-16 Lat,Lon NOAA-19 Lat,Lon Distance(km) Time Diff (sec)
1 04/09/2022 12:51:59 0.04, -75.22 0.74, -78.10 329.90 80
2 04/10/2022 12:40:11 0.04, -75.22 0.07, -75.22 2.87 80
3 04/11/2022 12:25:42 0.04, -75.22 -0.61, -72.34 328.40 80
4 04/14/2022 00:49:08 -0.04, -75.22 -0.51, -77.26 232.99 80
5 04/15/2022 00:34:40 -0.04, -75.23 0.18, -74.39 97.02 80
6 04/16/2022 00:22:50 -0.04, -75.24 0.82, -71.50 427.03 80
7 04/17/2022 12:57:55 0.04, -75.27 0.97, -79.26 455.21 80
8 04/18/2022 12:46:06 0.04, -75.28 0.29, -76.38 125.22 80
9 04/19/2022 12:31:38 0.04, -75.29 -0.40, -73.50 204.78 80
10 04/22/2022 00:55:01 -0.03, -75.30 -0.75, -78.41 354.42 80
11 04/23/2022 00:43:11 -0.03, -75.31 -0.10, -75.52 24.11 80
